This is the latest recevied weather packets stored in our database for station/object WX4BK-13. If no packets are shown the sender has not sent any weather packets the latest 1 day(s).
| Time | Temp. | Humidity | Pressure | Rain* | Wind** | Luminosity | Snow |
|---|---|---|---|---|---|---|---|
| 1778027066 | 21.67° C | 6% | - | 0 mm | 0 m/s | - | - |
| 1778026886 | 21.67° C | 6% | - | 0 mm | 0 m/s | - | - |
| 1778026526 | 21.67° C | 6% | - | 0 mm | 0.45 m/s, 135° | - | - |
| 1778026346 | 21.67° C | 5% | - | 0 mm | 0 m/s | - | - |
| 1778026166 | 21.67° C | 5% | - | 0 mm | 0.89 m/s, 225° | - | - |
| 1778025986 | 22.22° C | 5% | - | 0 mm | 1.34 m/s, 213° | - | - |
| 1778025807 | 22.22° C | 5% | - | 0 mm | 0 m/s | - | - |
| 1778025446 | 22.22° C | 5% | - | 0 mm | 0 m/s | - | - |
| 1778025266 | 22.22° C | 5% | - | 0 mm | 0.89 m/s, 106° | - | - |
| 1778024906 | 22.22° C | 5% | - | 0 mm | 0.89 m/s, 205° | - | - |
| 1778024726 | 22.78° C | 5% | - | 0 mm | 1.79 m/s, 193° | - | - |
| 1778024546 | 22.78° C | 5% | - | 0 mm | 0 m/s | - | - |
| 1778024366 | 22.78° C | 5% | - | 0 mm | 0.89 m/s, 185° | - | - |
| 1778024186 | 22.78° C | 5% | - | 0 mm | 0.89 m/s, 188° | - | - |
| 1778024006 | 22.78° C | 5% | - | 0 mm | 0.45 m/s, 180° | - | - |
| 1778023826 | 22.78° C | 5% | - | 0 mm | 1.79 m/s, 202° | - | - |
| 1778023646 | 22.78° C | 5% | - | 0 mm | 0.89 m/s, 247° | - | - |
| 1778023466 | 23.33° C | 5% | - | 0 mm | 2.24 m/s, 180° | - | - |
| 1778023286 | 23.89° C | 5% | - | 0 mm | 2.68 m/s, 209° | - | - |
| 1778022926 | 23.89° C | 5% | - | 0 mm | 0.45 m/s, 145° | - | - |
| 1778022746 | 23.89° C | 5% | - | 0 mm | 1.79 m/s, 235° | - | - |
| 1778022566 | 23.89° C | 5% | - | 0 mm | 0.89 m/s, 185° | - | - |
| 1778022386 | 23.89° C | 5% | - | 0 mm | 2.24 m/s, 192° | - | - |
| 1778022207 | 24.44° C | 5% | - | 0 mm | 2.24 m/s, 192° | - | - |
| 1778021847 | 24.44° C | 4% | - | 0 mm | 1.79 m/s, 213° | - | - |
* Rain latest hour (hover to see other rain measurements)
** Current wind speed in m/s (hover to see current wind gust speed)